Location: Huppendorf
(49.9333°N, 11.1500°E)
Time: 10:54:11
(UTC+00:00)

MOS 1 - Pass Details

Date: 27 February 2020
Orbit: 879 x 891 km, 99.2° (Epoch: 04 April)

Event Time Altitude Azimuth Distance (km) Brightness Sun altitude
Rises 18:46:13 0° 166° (SSE) 3,475 7.2 -18.9°
Reaches altitude 10° 18:48:36 10° 167° (SSE) 2,538 6.5 -19.3°
Maximum altitude 18:54:15 80° 254° (WSW) 902 4.4 -20.2°
Drops below altitude 10° 18:59:57 10° 342° (NNW) 2,549 7.1 -21.0°
Sets 19:02:21 0° 344° (NNW) 3,491 7.8 -21.4°
